Date,TemperatureHighF,TemperatureAvgF,TemperatureLowF,DewpointHighF,DewpointAvgF,DewpointLowF,HumidityHigh,HumidityAvg,HumidityLow,PressureMaxIn,PressureMinIn,WindSpeedMaxMPH,WindSpeedAvgMPH,GustSpeedMaxMPH,PrecipitationSumIn
2013-1-1,49.9,37.1,26.6,17.6,11.9,5.7,44,34,27,30.30,30.21,8,2,13,0.00
2013-1-2,57.7,38.5,23.2,19.2,11.0,5.0,43,31,22,30.27,30.15,6,1,10,0.00
2013-1-3,57.7,36.7,22.1,21.3,9.7,3.1,44,31,20,30.30,30.18,7,1,9,0.00
2013-1-4,56.4,36.5,20.9,20.9,8.5,0.7,42,30,20,30.36,30.24,6,1,8,0.00
2013-1-5,56.3,38.8,22.5,18.9,8.9,1.4,38,28,20,30.36,30.15,5,1,9,0.00
2013-1-6,55.0,45.5,35.5,31.3,22.6,6.6,75,41,26,30.15,29.97,10,5,16,0.00
2013-1-7,65.2,48.4,31.3,29.5,18.7,10.5,77,33,20,30.15,30.03,15,4,22,0.00
2013-1-8,68.1,52.9,36.3,33.3,26.4,18.5,54,37,24,30.24,30.12,7,2,11,0.00
2013-1-9,65.6,51.3,32.1,30.6,26.5,21.0,68,40,27,30.24,29.88,16,4,27,0.00
2013-1-10,55.3,44.6,34.8,34.8,19.2,10.6,55,36,28,30.00,29.80,18,11,28,0.00
2013-1-11,49.8,38.1,31.3,16.6,13.6,10.7,48,37,22,30.09,29.97,8,4,13,0.00
2013-1-12,47.4,34.3,22.1,15.1,10.4,4.8,45,36,27,30.15,30.06,6,2,9,0.00
2013-1-13,42.4,28.7,14.1,11.8,5.9,-1.2,48,36,28,30.21,30.06,10,2,15,0.00
2013-1-14,43.0,29.5,16.6,8.4,2.5,-3.4,36,29,23,30.36,30.21,7,2,10,0.00
2013-1-15,52.0,32.5,17.7,14.9,4.8,-3.4,35,29,21,30.50,30.33,6,1,8,0.00
2013-1-16,58.6,37.2,21.6,21.9,10.2,1.1,40,31,24,30.45,30.33,5,1,8,0.00
2013-1-17,62.4,39.7,21.3,22.0,11.7,4.4,49,32,19,30.39,30.27,6,1,9,0.00
2013-1-18,62.9,41.1,23.8,20.0,10.3,3.6,40,27,18,30.33,30.21,7,1,10,0.00
2013-1-19,64.1,37.7,23.3,19.7,9.0,1.9,37,29,18,30.36,30.24,6,1,9,0.00
2013-1-20,65.4,52.3,35.2,20.8,12.9,2.3,25,21,18,30.30,30.18,6,2,13,0.00
2013-1-21,59.4,41.5,33.4,14.5,5.6,1.3,25,22,17,30.21,30.15,3,1,5,0.00
2013-1-22,68.3,47.2,29.3,21.4,10.7,0.3,31,23,17,30.24,30.15,7,1,9,0.00
2013-1-23,59.2,47.1,34.4,32.5,13.3,4.6,56,26,19,30.21,30.12,5,0,6,0.00
2013-1-24,55.1,50.4,46.5,51.8,45.7,25.8,100,86,39,30.27,30.15,6,1,8,0.00
2013-1-25,59.6,52.1,47.7,52.8,49.1,-99.9,100,91,64,30.27,30.06,4,0,6,0.00
2013-1-26,65.7,54.3,46.4,56.2,45.9,-99.9,100,77,46,30.06,29.85,13,3,22,0.00
2013-1-27,54.8,49.1,42.8,37.6,28.1,20.9,70,45,29,29.97,29.85,20,9,28,0.00
2013-1-28,55.9,44.3,34.8,23.5,18.9,13.5,55,37,25,30.12,29.97,10,5,13,0.00
2013-1-29,59.7,44.4,29.7,30.8,25.8,20.5,73,49,30,30.27,30.06,8,3,12,0.00
2013-1-30,67.0,49.3,33.1,33.0,28.9,26.0,78,49,26,30.36,30.24,6,1,10,0.00
2013-1-31,68.5,50.6,33.5,32.1,29.4,26.9,82,48,25,30.30,30.18,6,2,10,0.00